N999SB ZZZZ-KOKC

Flight info

Callsign N999SB
Flight time N/A
Altitude VFR/165
Route FF
Aircraft C700/M-VGDW/C

Departure

Time N/A
Airport ZZZZ

Arrival

Time 2026-04-27 22:55
Airport OKC Will Rogers World Airport (KOKC)
Time Latitude Longitude Altitude Speed Heading
2026-04-27 22:22 35.03154 -95.21004 15785 ft 353 kts 265°
2026-04-27 22:23 35.03076 -95.23963 15782 ft 353 kts 265°
2026-04-27 22:23 35.03000 -95.26975 15784 ft 353 kts 265°
2026-04-27 22:23 35.02925 -95.29985 15785 ft 354 kts 265°
2026-04-27 22:23 35.02852 -95.32921 15784 ft 340 kts 265°
2026-04-27 22:24 35.02784 -95.35712 15770 ft 317 kts 265°
2026-04-27 22:24 35.02726 -95.38306 15763 ft 294 kts 265°
2026-04-27 22:24 35.02682 -95.40746 15761 ft 283 kts 265°
2026-04-27 22:24 35.02643 -95.43149 15765 ft 291 kts 265°
2026-04-27 22:25 35.02602 -95.45639 15772 ft 293 kts 265°
2026-04-27 22:25 35.02563 -95.48131 15773 ft 292 kts 266°
2026-04-27 22:25 35.02525 -95.50605 15772 ft 292 kts 266°
2026-04-27 22:25 35.02487 -95.53087 15772 ft 292 kts 266°
2026-04-27 22:26 35.02451 -95.55568 15753 ft 293 kts 266°
2026-04-27 22:26 35.02416 -95.58074 15099 ft 275 kts 265°
2026-04-27 22:26 35.02406 -95.60202 14332 ft 241 kts 265°
2026-04-27 22:26 35.02415 -95.62193 13583 ft 229 kts 265°
2026-04-27 22:27 35.02432 -95.64110 12815 ft 223 kts 266°
2026-04-27 22:27 35.02451 -95.65992 12039 ft 220 kts 266°
2026-04-27 22:27 35.02466 -95.67825 11304 ft 218 kts 266°
2026-04-27 22:27 35.02466 -95.69786 10665 ft 247 kts 266°
2026-04-27 22:28 35.02449 -95.71903 10096 ft 246 kts 266°
2026-04-27 22:28 35.02413 -95.74056 9453 ft 257 kts 266°
2026-04-27 22:28 35.02365 -95.76203 8790 ft 254 kts 266°
2026-04-27 22:28 35.02308 -95.78368 8130 ft 257 kts 266°
2026-04-27 22:29 35.02247 -95.80565 7497 ft 258 kts 266°
2026-04-27 22:29 35.02188 -95.82740 6894 ft 260 kts 266°
2026-04-27 22:29 35.02128 -95.84944 6278 ft 260 kts 266°
2026-04-27 22:29 35.02058 -95.87154 5638 ft 261 kts 266°
2026-04-27 22:30 35.01984 -95.89350 5015 ft 257 kts 266°
2026-04-27 22:30 35.01917 -95.91497 4806 ft 247 kts 266°
2026-04-27 22:30 35.01854 -95.93569 4804 ft 248 kts 266°
2026-04-27 22:30 35.01793 -95.95684 4798 ft 250 kts 266°
2026-04-27 22:31 35.01732 -95.97809 4800 ft 251 kts 266°
2026-04-27 22:31 35.01675 -95.99944 4790 ft 250 kts 266°
2026-04-27 22:31 35.01744 -96.02038 4784 ft 251 kts 274°
2026-04-27 22:31 35.02043 -96.04135 4787 ft 251 kts 277°
2026-04-27 22:32 35.02386 -96.06236 4794 ft 253 kts 278°
2026-04-27 22:32 35.02756 -96.08383 4476 ft 264 kts 284°
2026-04-27 22:32 35.03586 -96.10442 4183 ft 275 kts 298°
2026-04-27 22:32 35.04638 -96.12416 3923 ft 278 kts 300°
2026-04-27 22:33 35.05716 -96.14344 3701 ft 277 kts 301°
2026-04-27 22:33 35.06812 -96.16276 2946 ft 276 kts 301°
2026-04-27 22:33 35.07839 -96.18121 2778 ft 267 kts 301°
2026-04-27 22:33 35.08912 -96.20048 2780 ft 275 kts 301°
2026-04-27 22:34 35.09954 -96.21934 2766 ft 260 kts 301°
2026-04-27 22:34 35.10938 -96.23787 2757 ft 263 kts 301°
2026-04-27 22:34 35.11934 -96.25671 2775 ft 267 kts 302°
2026-04-27 22:34 35.12931 -96.27592 2776 ft 265 kts 301°
2026-04-27 22:35 35.13915 -96.29478 2773 ft 262 kts 301°
2026-04-27 22:35 35.14897 -96.31361 2772 ft 263 kts 301°
2026-04-27 22:35 35.15807 -96.33271 2771 ft 261 kts 297°
2026-04-27 22:35 35.16648 -96.35228 2767 ft 260 kts 297°
2026-04-27 22:36 35.17484 -96.37223 2764 ft 265 kts 296°
2026-04-27 22:36 35.18318 -96.39229 2778 ft 265 kts 296°
2026-04-27 22:36 35.19138 -96.41209 2768 ft 263 kts 296°
2026-04-27 22:36 35.19967 -96.43219 2770 ft 266 kts 296°
2026-04-27 22:37 35.20804 -96.45245 2771 ft 267 kts 296°
2026-04-27 22:37 35.21648 -96.47264 2781 ft 265 kts 296°
2026-04-27 22:37 35.22496 -96.49296 2776 ft 269 kts 296°
2026-04-27 22:37 35.23323 -96.51294 2793 ft 265 kts 297°
2026-04-27 22:38 35.24153 -96.53326 2771 ft 267 kts 296°
2026-04-27 22:38 35.24968 -96.55340 2771 ft 262 kts 296°
2026-04-27 22:38 35.25776 -96.57349 2805 ft 261 kts 296°
2026-04-27 22:38 35.26573 -96.59321 2801 ft 260 kts 296°
2026-04-27 22:39 35.27383 -96.61323 2800 ft 264 kts 296°
2026-04-27 22:39 35.28200 -96.63351 2799 ft 265 kts 296°
2026-04-27 22:39 35.29014 -96.65358 2803 ft 262 kts 296°
2026-04-27 22:39 35.29829 -96.67356 2806 ft 264 kts 296°
2026-04-27 22:40 35.30652 -96.69387 2803 ft 268 kts 297°
2026-04-27 22:40 35.31469 -96.71407 2809 ft 267 kts 296°
2026-04-27 22:40 35.32252 -96.73385 2785 ft 232 kts 297°
2026-04-27 22:40 35.32886 -96.75071 2783 ft 210 kts 296°
2026-04-27 22:41 35.33479 -96.76675 2819 ft 205 kts 296°
2026-04-27 22:41 35.34068 -96.78266 2792 ft 203 kts 297°
2026-04-27 22:41 35.34641 -96.79816 2800 ft 200 kts 296°
2026-04-27 22:41 35.35216 -96.81368 2804 ft 200 kts 296°
2026-04-27 22:42 35.35697 -96.82972 2822 ft 213 kts 288°
2026-04-27 22:42 35.36165 -96.84791 2832 ft 223 kts 292°
2026-04-27 22:42 35.36667 -96.86534 2819 ft 216 kts 289°
2026-04-27 22:42 35.37016 -96.88316 2807 ft 213 kts 286°
2026-04-27 22:43 35.37420 -96.90082 2809 ft 215 kts 288°
2026-04-27 22:43 35.37841 -96.91828 2808 ft 218 kts 288°
2026-04-27 22:43 35.38260 -96.93598 2805 ft 215 kts 287°
2026-04-27 22:43 35.38678 -96.95357 2814 ft 215 kts 288°
2026-04-27 22:44 35.39092 -96.97140 2818 ft 217 kts 288°
2026-04-27 22:44 35.39483 -96.98922 2819 ft 214 kts 287°
2026-04-27 22:44 35.39873 -97.00652 2816 ft 213 kts 287°
2026-04-27 22:44 35.40272 -97.02396 2808 ft 213 kts 288°
2026-04-27 22:45 35.40659 -97.04151 2808 ft 213 kts 287°
2026-04-27 22:45 35.41046 -97.05893 2804 ft 209 kts 288°
2026-04-27 22:45 35.41432 -97.07598 3110 ft 211 kts 287°
2026-04-27 22:45 35.41858 -97.09402 3117 ft 225 kts 287°
2026-04-27 22:46 35.42312 -97.11193 3108 ft 215 kts 291°
2026-04-27 22:46 35.42779 -97.12906 3111 ft 209 kts 292°
2026-04-27 22:46 35.43294 -97.14609 3110 ft 218 kts 292°
2026-04-27 22:46 35.43851 -97.16369 3107 ft 222 kts 292°
2026-04-27 22:47 35.44402 -97.18098 3109 ft 217 kts 293°
2026-04-27 22:47 35.44958 -97.19864 3118 ft 230 kts 293°
2026-04-27 22:47 35.45530 -97.21705 3325 ft 215 kts 292°
2026-04-27 22:47 35.46110 -97.23555 3135 ft 246 kts 292°
2026-04-27 22:48 35.46742 -97.25541 3100 ft 250 kts 292°
2026-04-27 22:48 35.47363 -97.27529 3105 ft 248 kts 294°
2026-04-27 22:48 35.47978 -97.29528 3111 ft 250 kts 292°
2026-04-27 22:48 35.48591 -97.31507 3118 ft 245 kts 293°
2026-04-27 22:49 35.49210 -97.33458 3119 ft 247 kts 292°
2026-04-27 22:49 35.49819 -97.35462 3116 ft 251 kts 292°
2026-04-27 22:49 35.50285 -97.37480 3112 ft 240 kts 284°
2026-04-27 22:49 35.50592 -97.39400 3098 ft 231 kts 283°
2026-04-27 22:50 35.50735 -97.41377 3113 ft 235 kts 269°
2026-04-27 22:50 35.50617 -97.43415 3121 ft 224 kts 268°
2026-04-27 22:50 35.50507 -97.45185 3088 ft 201 kts 266°
2026-04-27 22:50 35.50402 -97.46929 3119 ft 197 kts 269°
2026-04-27 22:51 35.50292 -97.48534 3096 ft 189 kts 267°
2026-04-27 22:51 35.50191 -97.50180 3115 ft 195 kts 268°
2026-04-27 22:51 35.50090 -97.51855 3110 ft 196 kts 269°
2026-04-27 22:51 35.49972 -97.53518 3103 ft 196 kts 268°
2026-04-27 22:52 35.49858 -97.55179 3112 ft 194 kts 269°
2026-04-27 22:52 35.49729 -97.56818 3105 ft 193 kts 263°
2026-04-27 22:52 35.49090 -97.58285 3120 ft 203 kts 224°
2026-04-27 22:52 35.47787 -97.58925 3132 ft 209 kts 187°
2026-04-27 22:53 35.46367 -97.58999 3157 ft 188 kts 182°
2026-04-27 22:53 35.45209 -97.58885 2920 ft 155 kts 177°
2026-04-27 22:53 35.44148 -97.58835 2633 ft 152 kts 183°
2026-04-27 22:53 35.43057 -97.58900 2194 ft 161 kts 185°
2026-04-27 22:54 35.41923 -97.58880 1765 ft 167 kts 184°
2026-04-27 22:54 35.40782 -97.58902 1492 ft 157 kts 181°
2026-04-27 22:54 35.39714 -97.58900 1317 ft 147 kts 181°
2026-04-27 22:54 35.38773 -97.58903 1290 ft 103 kts 179°
2026-04-27 22:55 35.38191 -97.58897 1284 ft 59 kts 180°
2026-04-27 22:55 35.37932 -97.58895 1288 ft 18 kts 179°
2026-04-27 22:55 35.37838 -97.58947 1287 ft 8 kts 254°
2026-04-27 22:55 35.37845 -97.59017 1289 ft 9 kts 293°
2026-04-27 22:56 35.37889 -97.59059 1289 ft 9 kts 348°
2026-04-27 22:56 35.37930 -97.59061 1285 ft 0 kts
2026-04-27 22:58 35.37996 -97.59061 1286 ft 23 kts 359°
2026-04-27 22:59 35.38153 -97.59060 1289 ft 22 kts 360°
2026-04-27 22:59 35.38313 -97.59064 1287 ft 24 kts 359°
2026-04-27 22:59 35.38426 -97.59062 1288 ft 24 kts
2026-04-27 22:59 35.38650 -97.59061 1288 ft 25 kts 359°
2026-04-27 23:00 35.38953 -97.59062 1290 ft 26 kts 360°
2026-04-27 23:00 35.39105 -97.59062 1288 ft 9 kts
2026-04-27 23:00 35.39140 -97.59062 1288 ft 0 kts
2026-04-27 23:01 35.39192 -97.59057 1288 ft 13 kts 19°
2026-04-27 23:01 35.39216 -97.59010 1289 ft 0 kts 83°
2026-04-27 23:02 35.39217 -97.58939 1290 ft 15 kts 91°
2026-04-27 23:02 35.39225 -97.58820 1292 ft 14 kts 86°
2026-04-27 23:02 35.39267 -97.58731 1291 ft 14 kts 18°
2026-04-27 23:02 35.39372 -97.58727 1288 ft 17 kts
2026-04-27 23:03 35.39494 -97.58726 1288 ft 18 kts
2026-04-27 23:03 35.39623 -97.58726 1288 ft 19 kts 359°
2026-04-27 23:03 35.39711 -97.58722 1286 ft 6 kts 25°
2026-04-27 23:03 35.39725 -97.58684 1287 ft 5 kts 88°
2026-04-27 23:04 35.39691 -97.58611 1286 ft 17 kts 155°
2026-04-27 23:04 35.39642 -97.58543 1286 ft 8 kts 97°
2026-04-27 23:04 35.39641 -97.58531 1288 ft 0 kts 96°